Wind_Speed
19 20 19 20 21 21 21 21 23 22 23 24 24 23 22 22 24 25 18 18 16 14 12 10 7 5 4 8 7 5 4 7 11 17 17 13 14 13 11 10 9 13 16 12 12 14 14
20 20 20 21 23 23 23 22 23 23 23 25 24 23 22 22 23 24 20 16 19 15 13 10 6 5 9 12 2 4 2 4 11 21 18 14 7 7 6 6 10 1 10 13 13 15 15
19 21 20 23 24 25 24 23 24 23 24 25 26 24 23 23 22 22 21 17 21 16 14 11 7 6 9 11 1 3 5 5 5 17 16 11 4 4 7 5 8 9 13 14 17 18 15
22 22 24 25 24 26 25 24 25 25 25 26 25 24 23 26 25 22 22 15 17 21 17 13 9 6 6 3 6 4 5 7 5 9 9 10 7 4 5 4 4 6 10 11 5 7 12
24 24 25 25 26 28 26 25 26 25 24 25 26 24 26 25 26 21 20 25 14 21 19 15 8 7 5 3 6 13 9 10 9 9 8 11 7 4 3 9 8 11 9 13 9 8 7
24 25 26 28 28 31 28 27 26 26 24 24 25 25 23 21 22 17 19 25 15 21 18 11 2 4 7 6 7 8 13 11 11 13 10 7 6 6 10 11 7 9 14 10 10 5 8
25 28 29 29 30 31 30 27 26 25 25 24 22 24 20 18 18 17 18 10 5 5 14 8 12 2 7 8 9 10 17 16 12 13 8 9 7 12 16 15 15 5 9 10 9 7 15
26 29 30 30 32 31 28 27 26 26 24 23 22 21 19 20 19 22 17 2 11 7 8 11 5 8 5 10 6 11 18 11 13 13 11 6 12 16 11 10 11 12 13 15 14 12 12
28 30 30 31 32 30 29 27 26 26 23 23 22 22 16 19 21 21 16 13 19 9 4 15 11 13 8 9 7 16 17 12 16 16 16 10 4 11 13 11 10 12 13 13 15 16 17
27 29 29 30 30 30 28 27 26 23 23 24 23 18 22 18 16 11 14 11 18 3 5 11 11 8 8 6 5 16 19 9 6 14 13 11 7 5 11 13 11 12 9 11 12 10 7
28 28 28 30 31 29 27 27 25 24 24 25 21 23 19 19 13 8 10 9 6 2 6 15 11 10 13 10 14 11 17 3 10 10 7 4 7 13 11 12 9 7 3 4 6 10 12
30 30 30 29 29 28 27 26 26 26 25 25 24 26 29 23 16 15 9 21 9 4 4 6 6 12 16 14 7 10 10 5 2 6 11 9 2 5 9 6 11 3 4 6 7 4 7
30 29 29 29 29 27 26 26 27 26 25 28 30 36 30 13 6 11 10 5 2 5 11 8 9 14 17 12 11 13 13 11 8 5 9 11 14 7 9 9 7 9 2 2 4 5 7
29 29 28 28 28 27 27 26 27 26 27 31 38 29 11 6 8 18 8 4 7 8 8 7 12 17 9 17 10 14 14 12 14 11 4 8 6 19 14 15 6 13 11 5 6 8 12
27 28 27 27 27 27 27 27 27 24 28 33 24 19 2 11 13 18 3 3 2 12 12 12 17 11 7 17 7 13 14 11 14 14 7 6 4 3 7 8 12 6 9 15 12 18 12
27 28 27 27 27 27 27 29 26 26 30 32 19 10 5 11 13 10 1 1 2 8 16 18 7 6 8 18 10 13 13 13 11 18 12 1 3 6 7 4 9 9 4 2 4 5 10
28 28 28 28 26 27 28 30 26 29 31 32 3 1 7 14 10 3 1 2 7 18 7 3 9 9 9 14 11 14 16 5 17 15 16 6 4 5 4 10 13 9 10 6 8 9 5
28 29 27 26 26 26 27 30 28 31 36 14 2 1 11 10 2 1 1 2 11 10 0 4 6 5 15 16 9 12 10 2 8 9 13 9 1 5 12 9 8 14 15 16 7 10 8
27 29 28 25 25 26 27 29 30 33 36 11 2 2 3 5 3 4 1 2 5 3 1 3 4 2 9 13 6 6 8 4 10 12 11 10 5 3 3 4 11 11 17 18 19 16 22
26 26 27 25 24 27 27 29 30 34 32 7 2 2 1 2 3 9 4 8 6 4 7 8 9 10 10 12 2 8 6 4 9 11 8 6 5 7 8 10 6 6 14 17 17 10 19
25 25 26 25 23 25 27 28 30 35 26 6 3 2 1 1 3 10 2 4 9 4 3 3 4 3 4 4 5 4 6 6 6 7 5 5 4 9 17 22 21 20 23 23 20 20 17
24 25 24 23 23 23 25 26 29 33 23 5 3 3 5 2 6 12 4 6 6 4 2 2 3 5 3 3 2 3 5 6 6 10 10 4 3 4 16 21 21 20 22 18 19 19 19
22 23 23 23 22 23 24 25 27 28 23 4 3 3 3 2 5 6 4 7 6 4 4 4 3 4 2 1 4 4 3 2 2 4 11 5 3 3 5 10 19 9 4 8 11 13 10
22 21 21 22 22 23 23 23 24 25 25 9 3 3 3 2 7 5 5 5 7 4 3 3 0 2 3 6 5 4 7 9 10 11 8 4 4 2 6 10 3 2 5 8 10 14 9
19 19 20 21 21 21 22 22 22 23 25 16 7 4 3 1 5 4 7 4 7 5 2 3 1 4 2 2 3 3 2 1 8 14 10 11 4 3 3 6 15 6 3 4 4 7 12
17 18 18 20 21 22 22 22 23 23 23 21 9 12 2 3 5 3 5 6 5 4 4 2 2 2 2 2 1 1 2 3 2 4 3 8 9 4 2 3 4 5 9 3 1 2 15
15 15 16 17 18 21 21 21 21 20 22 20 3 11 3 3 2 6 6 6 4 5 1 1 2 1 3 1 2 2 4 1 3 3 6 4 3 5 6 4 8 7 5 1 2 7 13
16 15 14 15 17 18 20 20 21 20 20 18 8 4 5 3 7 5 7 4 3 5 3 4 3 3 2 2 1 2 3 2 3 5 4 6 5 4 4 5 6 3 5 7 6 7 7
16 16 14 15 16 16 19 20 20 20 19 17 6 11 11 4 4 7 6 5 5 2 1 4 3 3 1 2 2 2 2 3 4 3 3 4 6 3 5 3 7 5 9 8 5 7 6
Wind_Direction
355 353 346 348 346 342 339 338 336 335 333 331 330 322 318 314 321 326 308 266 226 231 236 234 237 236 228 224 251 143 200 206 198 194 200 197 200 211 211 204 210 234 255 244 259 263 256
348 346 341 340 336 336 330 329 329 327 329 327 324 320 320 319 311 317 315 295 227 218 221 224 219 213 233 237 115 159 226 213 200 194 200 202 233 231 262 215 215 277 268 270 256 257 250
342 336 334 331 325 324 324 324 324 323 323 322 321 316 313 313 311 310 315 300 230 213 211 207 195 200 242 227 147 205 225 238 208 193 191 194 184 207 208 223 228 263 264 264 248 241 235
329 331 330 328 322 319 320 317 319 317 316 317 318 315 312 314 313 305 309 310 245 208 202 193 185 202 249 190 226 224 195 202 169 159 188 163 150 268 256 76 205 239 242 255 132 228 230
338 331 327 321 319 321 318 314 317 314 308 310 313 311 308 306 310 299 305 307 304 202 193 175 176 215 240 161 205 209 196 187 166 141 140 159 158 194 162 225 226 218 256 218 248 197 248
333 328 325 324 321 321 318 319 322 316 310 309 310 310 309 305 311 306 307 305 279 187 188 158 115 188 211 208 160 176 190 180 164 142 125 156 198 226 215 215 225 237 220 254 257 157 235
333 331 330 326 323 322 324 325 322 315 311 312 312 311 313 312 316 320 325 326 170 173 194 174 177 139 136 124 144 178 173 175 169 168 168 181 214 218 231 226 253 285 297 274 273 279 284
334 331 331 329 324 328 331 323 321 315 312 313 313 308 309 315 310 314 305 253 282 353 176 216 190 151 152 166 139 167 170 170 181 186 167 145 227 233 258 267 250 255 264 267 279 286 297
335 335 331 331 330 331 327 325 324 318 314 315 312 310 313 313 310 296 240 227 256 297 205 181 176 174 166 190 165 173 192 195 194 202 193 193 217 227 231 227 241 245 259 273 280 304 295
332 333 333 334 333 331 330 328 325 321 317 317 319 311 320 314 302 304 243 252 242 254 176 155 195 194 172 192 191 166 193 162 192 207 188 231 198 194 214 231 234 258 277 282 285 292 274
332 332 335 333 332 332 332 330 327 325 324 324 317 314 303 299 290 275 312 177 204 178 179 144 147 148 163 180 127 176 183 169 183 184 173 185 223 207 228 232 234 247 16 288 297 291 305
335 336 337 337 337 337 336 336 333 330 328 323 321 312 308 286 251 253 252 141 95 202 158 134 136 171 160 192 152 143 167 231 249 205 219 256 85 211 224 211 217 77 225 251 246 268 257
337 339 342 342 341 342 341 341 337 334 330 330 324 315 306 258 209 188 176 161 182 252 153 145 169 164 161 172 155 174 177 177 171 167 218 232 219 212 234 214 194 205 176 248 223 208 247
339 341 343 343 342 343 342 342 340 338 332 330 329 328 316 184 197 153 128 124 231 126 129 165 140 153 164 161 182 177 180 194 217 219 160 203 205 196 195 215 187 208 207 219 262 253 292
338 341 342 345 345 345 344 345 342 338 336 339 339 344 10 142 104 142 114 167 226 140 129 141 136 148 141 186 144 180 190 196 203 205 210 191 242 216 161 199 212 161 215 244 290 280 275
338 343 344 346 348 346 345 348 342 341 340 343 335 340 339 125 132 114 90 239 335 110 138 147 132 179 156 178 173 186 184 204 207 207 217 228 244 183 183 208 229 212 343 181 211 274 273
340 346 346 348 349 347 348 351 343 340 340 334 315 354 140 129 129 174 133 311 111 129 126 176 144 151 157 172 186 182 185 143 197 191 201 201 230 132 141 204 205 199 231 220 290 241 269
342 345 347 348 352 349 351 351 345 342 337 343 73 41 152 154 76 295 246 347 128 143 265 98 129 158 153 164 165 181 177 87 190 188 192 197 198 252 243 242 224 250 220 227 234 232 232
343 346 349 350 351 351 355 352 348 345 347 343 53 4 238 253 143 157 272 111 117 135 62 141 119 128 150 159 166 192 190 111 174 179 170 167 215 284 233 204 233 237 243 246 244 263 253
345 346 351 352 355 355 356 355 353 350 353 17 118 98 304 259 293 155 192 131 108 42 69 86 106 127 135 161 28 169 153 156 186 199 67 191 224 233 271 311 334 241 249 252 249 255 266
345 349 351 354 359 356 357 358 357 357 6 31 10 39 10 166 224 153 107 96 130 130 74 73 115 151 143 153 171 167 159 143 173 197 182 226 241 257 265 273 279 272 270 269 260 256 254
346 350 355 356 358 358 358 1 1 3 11 53 23 352 335 222 183 153 156 148 95 72 30 79 139 147 146 153 85 171 193 203 211 178 200 211 259 276 280 269 263 269 272 273 271 265 258
345 352 357 357 358 360 0 2 5 6 13 19 346 274 256 185 184 166 148 155 154 152 63 51 89 139 184 25 351 305 221 301 12 180 201 200 202 270 261 327 305 267 260 262 265 257 259
346 352 356 355 357 359 360 2 6 8 9 353 315 300 312 149 193 187 155 156 151 194 93 98 41 182 36 57 334 246 229 241 237 227 210 215 183 229 293 309 278 221 294 279 282 288 341
341 349 356 356 354 356 356 360 6 7 5 8 13 332 323 241 205 161 177 152 121 151 157 104 107 43 23 298 286 287 184 209 241 238 217 210 166 278 276 299 277 309 332 292 332 309 355
340 344 353 355 351 353 356 357 358 2 3 4 22 15 312 294 210 172 168 166 150 162 183 161 92 358 255 283 234 285 266 356 190 133 196 193 206 210 312 311 289 298 13 355 259 267 9
333 335 346 350 352 348 350 349 352 356 357 357 332 6 293 287 305 226 193 186 196 214 71 78 158 169 310 233 264 245 257 9 262 222 178 173 196 228 245 265 279 274 343 350 342 330 341
323 327 337 343 345 347 344 345 344 347 351 353 304 350 14 307 283 295 224 196 177 217 181 121 167 197 148 195 186 223 254 310 285 269 217 204 190 204 192 230 274 28 303 339 342 314 317
315 319 326 333 334 339 339 341 341 339 343 351 317 324 324 237 282 312 294 297 310 347 264 177 349 115 91 120 223 274 297 303 296 280 225 248 228 323 222 253 323 306 282 313 318 297 301
Height
823 820 816 813 810 806 802 799 795 791 787 783 781 777 773 769 765 762 759 758 758 761 762 763 762 762 763 760 754 752 755 755 756 760 760 760 759 759 759 753 756 763 757 750 752 753 754
823 820 816 812 808 804 800 795 792 788 785 781 777 773 770 767 764 760 756 755 755 758 760 760 760 761 762 758 752 753 755 755 754 757 759 760 757 755 755 756 761 754 757 755 753 753 753
821 817 813 809 805 801 797 793 789 784 781 777 773 770 766 764 761 757 753 751 752 753 757 758 759 761 760 750 751 753 755 755 753 753 756 761 763 765 761 762 759 762 765 756 751 750 752
819 815 811 807 802 798 794 790 786 782 778 774 770 766 762 759 756 753 750 746 747 750 753 755 757 760 753 749 751 754 754 755 754 754 757 762 765 767 761 761 762 765 759 758 734 742 742
817 812 808 804 799 794 789 785 781 778 773 770 766 762 758 755 752 749 746 744 742 744 750 752 757 756 747 749 750 751 753 753 755 754 756 762 766 768 768 767 763 758 753 746 740 736 744
815 810 805 800 796 790 785 781 777 773 769 766 762 758 754 751 748 745 743 740 737 742 748 751 752 757 746 743 747 749 753 753 753 753 757 760 761 763 763 760 757 747 753 747 745 738 746
813 808 802 798 792 787 781 777 773 768 765 761 757 754 750 746 745 743 742 740 735 741 738 731 736 735 739 745 748 750 752 752 752 752 757 761 769 766 752 750 745 748 752 748 740 738 745
811 805 800 795 789 783 778 773 769 764 760 757 753 749 747 744 742 740 739 739 734 734 733 730 733 737 742 743 746 749 750 750 752 755 756 768 770 756 752 752 754 755 756 753 744 740 748
809 803 797 792 786 780 774 769 765 760 756 753 749 745 743 741 739 734 733 733 732 732 725 729 733 734 742 744 738 746 748 745 750 752 755 758 754 752 757 760 764 760 761 756 754 746 746
806 800 794 789 783 777 771 766 761 757 753 749 745 741 738 736 735 729 726 724 730 733 728 733 733 734 739 739 741 743 747 747 750 753 754 758 750 758 758 760 759 760 749 752 756 763 756
804 798 792 786 780 774 768 763 758 754 749 745 741 737 733 734 730 729 725 724 727 736 703 724 729 730 732 735 739 745 745 749 749 746 753 754 757 759 764 758 757 762 761 764 764 767 769
803 796 789 783 777 771 766 760 755 750 746 740 735 730 726 721 723 719 723 724 730 726 696 722 730 730 734 734 738 742 747 750 746 749 753 749 756 756 754 757 758 762 764 767 768 772 771
800 794 788 781 775 770 764 759 753 748 742 737 730 721 714 712 714 715 720 722 728 703 706 725 724 725 728 734 737 742 747 751 749 764 762 755 754 756 755 759 759 763 771 763 766 771 747
798 793 786 780 774 768 762 757 751 745 740 733 724 714 709 707 711 715 722 725 711 694 698 709 718 723 729 731 735 738 744 748 746 745 746 755 751 749 752 753 755 764 764 755 746 728 715
796 791 785 779 773 766 760 755 749 744 737 730 720 713 709 710 710 714 718 715 694 681 697 706 720 726 728 729 730 733 738 742 739 742 747 744 747 742 745 747 751 759 771 756 759 745 745
795 789 783 777 771 765 759 753 747 742 735 728 721 717 714 715 717 719 720 708 696 690 695 703 708 714 723 725 727 729 737 729 736 732 733 738 748 743 744 751 751 752 754 770 771 756 729
795 789 783 777 770 765 758 752 746 739 732 725 720 718 717 718 721 721 714 712 697 695 697 697 702 708 715 722 722 728 733 726 726 729 735 740 743 750 754 754 742 755 760 762 747 739 730
794 788 781 776 770 764 758 751 744 737 728 719 720 717 720 720 720 718 716 710 699 703 703 700 699 699 709 717 723 723 718 721 724 727 734 738 744 747 739 729 731 731 740 745 752 730 730
794 787 781 775 769 764 758 751 744 735 726 719 723 726 724 722 716 715 720 708 703 706 702 702 704 703 705 713 718 715 717 726 727 730 732 738 746 747 736 729 727 733 730 728 730 735 720
792 786 780 774 769 764 759 752 745 736 725 721 725 723 724 721 712 706 716 706 707 707 705 702 705 705 708 712 711 716 723 729 730 730 737 734 736 742 726 718 724 744 731 725 731 725 703
792 786 780 774 769 765 760 753 746 737 727 724 725 723 722 718 711 705 711 708 709 708 708 706 709 707 707 712 715 718 720 727 731 732 736 738 745 741 733 726 723 723 718 715 725 715 713
792 785 779 774 769 766 761 755 748 740 733 730 732 728 723 709 702 702 707 713 713 711 708 711 709 709 710 710 712 715 716 721 723 730 734 738 743 742 737 722 718 716 706 706 705 700 698
791 785 780 774 770 766 762 757 751 745 739 737 737 736 734 713 707 702 703 708 711 711 715 712 712 712 715 715 716 718 720 723 724 727 733 738 745 743 721 709 706 695 698 700 696 690 690
792 785 780 775 771 767 763 759 754 749 744 742 740 738 730 717 707 703 708 709 710 712 714 717 717 715 724 719 719 717 718 722 722 727 727 733 742 742 723 717 698 686 683 691 687 676 671
790 786 781 776 772 768 764 760 756 751 746 742 740 739 734 715 707 709 709 708 711 714 716 718 720 720 720 721 717 712 714 722 714 715 721 727 739 733 723 709 685 678 677 682 686 676 667
789 785 780 775 773 769 765 761 756 752 749 743 740 740 738 731 708 706 708 709 711 712 718 718 722 723 722 720 719 721 711 705 708 718 720 723 731 732 726 718 702 673 669 675 676 676 665
786 783 778 773 768 767 765 762 758 753 749 746 742 741 739 731 710 709 708 711 712 712 716 721 723 724 724 723 722 721 714 706 705 700 717 720 725 724 721 719 690 668 672 675 675 675 668
784 781 775 771 768 764 762 760 757 754 751 747 743 741 742 737 723 713 708 711 713 712 713 721 723 724 728 724 726 724 724 706 707 693 696 698 706 710 712 714 700 670 666 673 671 669 668
782 778 774 769 767 762 760 757 755 752 750 746 743 741 740 738 725 718 715 714 713 712 713 718 717 717 720 727 732 726 719 711 705 702 693 696 684 684 685 675 663 668 670 668 670 670 667